Regional Weather Roundup
Issued by NWS

Home | Current Version | Previous Version | Text Only | Print | Product List | Glossary On
Versions: 1 2 3 4 5 6 7 8 9 10 11 12 13 14 15 16 17 18 19 20 21 22 23 24 25 26 27 28 29 30 31 32 33 34 35 36 37 38 39 40 41 42 43 44 45 46 47 48 49 50
000
ASUS43 KFSD 281410
RWRSD

WEATHER ROUNDUP FOR SOUTH DAKOTA
NATIONAL WEATHER SERVICE SIOUX FALLS SD
900 AM CDT SAT MAR 28 2015

NOTE: "FAIR" INDICATES FEW OR NO CLOUDS BELOW 12,000 FEET WITH NO
SIGNIFICANT WEATHER AND/OR OBSTRUCTIONS TO VISIBILITY.


SDZ001>005-009-010-012>017-281500-
NORTHWEST AND NORTH CENTRAL SOUTH DAKOTA

CITY           SKY/WX    TMP DP  RH WIND       PRES   REMARKS
BUFFALO          N/A     40  34  79 S8        29.80F
FAITH            N/A     36  31  82 S16       29.90F
MOBRIDGE       SUNNY     29  26  89 SE10      29.95F WCI  20
$$

SDZ012>016-024>037-041>051-057-063-072>074-281500-
SOUTHWEST AND SOUTH CENTRAL SOUTH DAKOTA

CITY           SKY/WX    TMP DP  RH WIND       PRES   REMARKS
RAPID CTY ARPT SUNNY     40  34  79 E3        29.91F
PIERRE         MOSUNNY   28  27  96 SE12      29.99S FOG     WCI  18
CUSTER         SUNNY     45  30  55 CALM      29.97F
ELLSWORTH AFB  SUNNY     44  35  69 S2        29.89F
PHILIP         SUNNY     32  27  81 CALM      29.95F
PINE RIDGE     SUNNY     34  30  85 CALM      29.95S
SPEARFISH      FAIR      48  36  61 CALM      29.90F
WINNER         FAIR      38  31  76 E5        29.99S
$$

SDZ004>011-016>023-039-040-281500-
NORTHEAST SOUTH DAKOTA

CITY           SKY/WX    TMP DP  RH WIND       PRES   REMARKS
ABERDEEN       CLOUDY    33  26  75 SE15      30.06F WCI  23
WATERTOWN      PTSUNNY   28  24  85 S12G18    30.09S WCI  18
SISSETON         N/A     26  25  96 S15       30.12S WCI  14
$$

SDZ017-020-022-023-036>040-048>070-281500-
SOUTHEAST SOUTH DAKOTA

CITY           SKY/WX    TMP DP  RH WIND       PRES   REMARKS
SIOUX FALLS    MOSUNNY   32  26  78 SE10      30.13R WCI  24
HURON          SUNNY     31  25  78 SE12      30.08S WCI  22
CHAMBERLAIN    SUNNY     27  25  91 SE12      30.03S WCI  16
MITCHELL       SUNNY     31  25  78 SE15G22   30.10R WCI  20
YANKTON        SUNNY     30  25  80 SE10      30.13R WCI  21
$$

ABBREVIATIONS USED IN REMARKS
   TC - TEMPERATURE IN CELSIUS
  WCI - WIND CHILL INDEX
   HX - HEAT INDEX
  VSB - VISIBILITY



USA.gov is the U.S. government's official web portal to all federal, state and local government web resources and services.